Regional Weather Roundup
Issued by NWS

Home | Current Version | Previous Version | Text Only | Print | Product List | Glossary On
Versions: 1 2 3 4 5 6 7 8 9 10 11 12 13 14 15 16 17 18 19 20 21 22 23 24 25 26 27 28 29 30 31 32 33 34 35 36 37 38 39 40 41 42 43 44 45 46 47 48 49 50
000
ASUS45 KREV 180210
RWRNV
NEVADA REGIONAL WEATHER ROUNDUP
NATIONAL WEATHER SERVICE RENO NV
700 PM PDT WED SEP 17 2014

NOTE: "FAIR" INDICATES FEW OR NO CLOUDS BELOW 12,000 FEET WITH NO
SIGNIFICANT WEATHER AND/OR OBSTRUCTIONS TO VISIBILITY.

NVZ001-003-004-180300-
WESTERN NEVADA

CITY           SKY/WX    TMP DP  RH WIND       PRES   REMARKS
RENO           PTCLDY    77  37  23 W15G28    29.85R SMOKE
MINDEN         FAIR      75  36  23 S12       29.91R
SLIDE MTN        N/A     54  34  47 SW21        N/A
PYRAMID LAKE     N/A     82 N/A N/A SW14        N/A
FALLON         MOCLDY    88  35  15 NW16      29.77R
LOVELOCK       MOCLDY    85  36  17 NW17      29.76R HAZE
HAWTHORNE      CLEAR     88  36  15 SW24G31   29.78S
$$

NVZ002-CAZ072-073-180300-
NORTHERN AND CENTRAL SIERRA

CITY           SKY/WX    TMP DP  RH WIND       PRES   REMARKS
S. LAKE TAHOE  CLEAR     70  33  25 S9G20     30.00S
TRUCKEE        PTCLDY    66  34  30 S10G20    29.99S
SQUAW VLY 8000 NOT AVBL
BLUE CANYON    CLEAR     67  37  33 S9        29.98F
MAMMOTH LAKES  FAIR      68  36  30 W17G28    30.08R
BRIDGEPORT     FAIR      67  34  29 SW12      30.03S
$$

NVZ030-031-036-180300-
NORTHERN NEVADA

CITY           SKY/WX    TMP DP  RH WIND       PRES   REMARKS
ELKO           CLOUDY    78  45  30 N6        29.88F
WINNEMUCCA     PTCLDY    81  34  18 SW8       29.79S
WENDOVER       MOCLDY    88  36  15 E8        29.84S
$$

NVZ035-037-180300-
CENTRAL NEVADA

CITY           SKY/WX    TMP DP  RH WIND       PRES   REMARKS
ELY            MOCLDY    72  44  36 S9        30.03S
EUREKA           N/A     77  45  32 S15       29.96S
$$

NVZ013-014-180300-
SOUTH CENTRAL NEVADA

CITY           SKY/WX    TMP DP  RH WIND       PRES   REMARKS
TONOPAH        CLEAR     81  44  27 S12       29.94S
$$

NVZ017-020-022-180300-
SOUTHERN NEVADA

CITY           SKY/WX    TMP DP  RH WIND       PRES   REMARKS
LAS VEGAS      PTCLDY    94  54  25 S10       29.73R
N. LAS VEGAS   CLEAR     93  52  24 SE5       29.75S
NELLIS AFB     CLEAR     94  58  29 SE10      29.73S
HENDERSON      CLEAR     92  56  29 SE10      29.80R
MERCURY        CLEAR     90  49  24 SW9       29.81S
$$



USA.gov is the U.S. government's official web portal to all federal, state and local government web resources and services.